Theta_e
328 332 330 322 310 308 305 306 312 311 313 318 323 320 318 320 317 313 336 339 340 340 333 342 346 347 348 349 347 346 344 342 340 339 338 337 335 335 335 335 335 335 335 335 335 336 335 336 336
323 324 324 320 307 301 303 308 309 314 315 319 320 318 318 317 328 329 331 338 341 338 333 340 343 347 348 348 347 346 345 342 340 339 337 336 336 337 336 335 334 334 334 334 334 335 335 335 335
322 322 319 313 308 301 302 307 313 313 317 319 317 319 319 319 330 331 338 339 340 335 334 341 343 347 347 347 347 346 345 342 339 338 337 336 335 336 335 338 335 333 333 334 334 333 333 333 333
318 322 317 309 304 308 305 307 313 314 314 315 318 315 322 330 331 337 340 339 338 334 335 342 344 347 347 347 346 345 344 341 339 338 336 335 334 333 335 339 336 333 332 332 331 331 331 331 331
323 319 310 307 306 306 307 308 313 313 313 314 317 314 319 331 337 339 338 338 333 335 335 344 344 345 346 346 345 344 343 341 340 338 337 335 334 333 333 333 334 335 334 332 330 330 329 329 329
312 316 306 304 306 306 307 311 314 314 311 314 314 316 322 334 336 336 338 335 332 335 336 343 338 341 343 343 344 344 343 342 340 338 337 336 334 333 332 333 332 331 332 332 331 330 330 329 329
309 310 306 306 306 305 307 312 312 312 311 313 318 313 322 328 334 336 338 334 330 334 336 341 343 340 335 338 340 341 342 340 341 340 339 338 337 337 335 335 333 333 331 330 330 331 331 331 331
314 311 305 307 306 305 309 311 311 312 310 316 320 311 314 331 334 335 338 333 329 333 336 339 342 343 342 342 334 335 338 336 336 337 335 333 333 333 333 330 332 332 332 332 332 332 331 332 332
315 306 303 306 306 308 308 309 309 312 312 315 318 316 321 334 332 332 333 330 328 330 335 336 337 340 343 342 337 331 332 333 332 333 330 329 335 334 331 328 329 331 332 333 333 333 333 334 331
309 304 304 310 311 309 308 309 309 310 311 313 316 321 328 329 329 328 328 328 326 327 331 333 334 335 340 340 342 340 338 338 338 337 337 336 335 335 332 326 325 327 327 329 331 332 332 329 332
306 301 305 308 311 312 308 308 311 310 308 312 314 319 323 326 327 328 330 330 327 328 329 333 334 334 335 340 340 339 339 337 338 339 338 337 335 335 333 333 332 332 323 330 330 331 331 331 332
301 304 304 309 311 310 309 310 309 312 312 316 318 323 325 324 326 327 329 330 329 329 329 330 332 335 338 339 338 337 336 336 336 337 339 337 336 335 334 333 333 333 332 331 332 331 331 331 331
301 302 304 308 308 309 309 308 310 311 314 318 318 324 325 326 326 328 332 332 332 331 332 331 331 331 332 334 334 334 334 334 334 334 336 336 334 334 334 333 333 332 332 331 330 330 330 331 331
302 302 304 306 306 307 308 307 308 312 316 318 320 322 325 326 328 329 332 332 333 333 334 333 331 332 332 331 331 331 332 332 333 333 333 334 334 333 333 332 331 331 331 330 330 330 330 331 331
303 300 302 303 304 303 308 304 305 310 315 316 319 322 324 326 329 330 332 333 334 334 334 333 333 335 334 333 333 332 332 331 331 332 333 333 332 332 332 331 331 331 331 331 331 331 331 330 330
300 300 294 300 303 303 302 299 307 308 313 314 318 321 323 325 328 331 333 334 335 335 334 335 334 335 336 335 335 334 334 334 334 334 334 333 333 333 332 332 332 333 333 332 331 331 330 327 326
297 293 294 296 302 301 300 298 300 305 307 312 316 319 320 322 326 329 332 333 334 335 335 335 336 336 336 337 336 336 336 336 336 336 336 336 335 334 333 332 333 334 333 332 332 330 329 327 328
292 293 294 295 299 299 299 298 299 302 304 308 312 315 318 319 322 326 329 331 332 333 334 335 335 335 336 336 337 337 336 336 337 336 336 336 335 335 334 334 334 334 333 333 333 331 332 330 329
295 294 293 294 297 298 298 299 300 301 302 304 307 309 311 313 316 318 320 321 320 326 330 330 331 333 335 335 333 333 332 334 335 336 336 336 336 336 335 335 335 335 333 333 333 331 329 330 331
293 292 290 293 296 297 295 297 301 302 303 304 304 306 308 310 310 311 310 310 310 316 322 326 327 329 331 333 333 333 333 334 335 336 335 336 335 335 334 334 334 334 332 332 331 329 326 327 330
293 290 289 289 293 292 291 292 295 297 299 301 303 306 306 306 308 309 309 308 308 309 310 310 313 318 325 330 331 330 330 330 329 331 332 333 333 334 334 334 334 333 332 330 332 330 326 323 326
290 295 292 292 290 285 290 286 290 291 292 293 299 302 303 304 304 305 305 308 307 307 309 309 309 311 312 313 325 327 326 326 329 330 332 333 333 333 333 332 332 332 331 330 331 331 328 326 323
290 294 292 290 289 288 288 286 291 289 291 293 293 295 298 298 298 300 302 304 306 307 309 310 310 310 310 313 312 317 320 323 326 327 327 329 330 331 331 331 331 330 330 330 330 329 327 327 326
295 294 293 292 290 283 286 286 288 290 291 291 293 296 297 297 297 299 302 304 304 305 306 308 308 307 308 309 309 311 311 312 314 316 317 321 324 325 325 327 329 328 328 328 328 328 327 326 325
294 290 283 281 283 281 284 284 288 293 294 291 292 293 297 298 299 301 302 303 303 303 304 305 306 304 306 307 308 308 309 311 312 313 314 317 319 320 319 321 321 318 317 316 321 320 319 318 319
291 289 282 276 278 280 283 282 289 292 292 293 295 295 297 298 299 301 302 303 303 303 303 303 303 303 304 305 305 307 307 310 310 310 312 317 317 315 313 314 314 311 310 312 314 310 309 311 313
289 286 291 283 280 280 284 287 290 293 292 293 292 294 296 298 299 301 302 302 302 303 302 302 302 301 301 301 303 304 305 306 307 308 311 312 310 308 309 309 308 307 306 308 309 308 307 308 307
291 292 283 285 277 276 281 281 285 290 289 291 294 294 296 297 298 300 302 301 301 301 300 300 300 300 300 300 301 301 302 303 304 305 305 305 305 305 305 305 304 304 304 304 305 304 304 304 304
288 287 288 287 283 278 277 282 289 289 289 290 293 295 296 297 299 301 302 302 301 301 300 300 300 299 299 300 300 300 300 300 301 302 302 302 302 302 302 302 302 301 301 301 302 301 301 301 301
291 288 288 282 280 283 281 283 294 291 291 293 293 294 297 298 300 301 301 301 300 300 300 300 300 300 299 299 299 299 299 299 299 299 299 300 300 300 301 300 300 299 299 299 299 297 298 298 298
Wind_Speed
3 7 3 5 6 5 4 5 2 8 8 3 12 4 8 2 2 3 5 9 17 18 16 17 12 15 15 14 14 13 13 12 11 11 10 10 10 10 10 10 9 10 10 10 9 10 9 10 12
1 4 4 2 6 7 5 5 9 9 6 9 8 4 6 3 3 7 11 9 18 16 16 16 11 13 15 14 14 12 12 11 10 10 11 10 10 10 9 10 9 9 9 9 9 8 8 9 10
4 5 4 4 4 8 2 7 8 7 10 11 7 2 1 3 3 11 5 16 18 15 15 14 12 14 15 14 13 12 11 11 10 9 9 7 8 7 6 10 11 8 8 8 8 8 8 8 9
3 5 3 7 8 3 2 5 9 14 5 6 3 5 4 2 5 8 15 19 18 15 15 14 13 14 14 13 13 11 10 10 10 9 8 7 7 4 8 9 11 9 7 7 7 7 6 6 6
3 3 6 6 8 1 4 3 11 14 9 8 7 6 3 4 4 11 16 16 17 16 14 16 10 11 12 11 11 11 10 9 9 8 7 8 7 6 5 6 6 7 7 5 5 5 4 4 4
5 3 7 10 8 3 3 6 10 11 5 6 6 6 5 5 9 11 15 16 15 15 14 14 10 10 10 11 10 9 9 9 8 7 6 6 6 6 5 5 5 5 4 3 2 2 1 2 2
5 6 8 6 7 4 5 9 10 11 7 7 2 6 4 6 9 12 14 14 13 13 13 11 13 11 9 9 9 9 8 10 8 7 6 6 6 6 6 4 3 4 3 2 2 3 3 4 4
4 4 6 6 7 5 7 10 4 10 8 2 4 6 5 12 12 13 14 14 13 12 11 11 9 11 12 11 8 7 7 6 8 8 7 7 5 5 6 4 5 3 4 4 4 4 6 6 7
2 6 9 9 8 4 8 10 4 2 6 3 5 1 4 18 14 13 14 13 13 11 12 11 9 9 10 10 10 7 6 4 4 7 7 7 6 6 6 2 1 5 5 5 6 6 6 6 8
6 7 10 4 6 5 9 8 10 7 7 7 7 5 8 15 15 17 16 15 15 14 14 10 10 9 9 8 9 9 8 7 7 7 8 7 6 5 4 3 4 5 5 7 8 8 7 8 5
5 7 4 4 4 4 8 7 7 6 8 9 12 12 13 16 15 16 16 16 15 14 11 13 11 10 9 8 7 5 5 5 6 9 8 7 5 5 5 4 4 6 6 6 6 6 5 6 5
5 5 2 2 3 4 7 5 7 11 2 1 4 12 16 18 17 18 17 15 16 15 14 14 14 12 12 8 8 7 6 6 6 7 9 7 5 6 6 5 5 5 5 6 6 5 6 7 7
6 3 4 1 2 2 5 6 4 10 3 1 7 13 15 16 16 14 13 13 14 14 15 15 14 12 11 11 8 8 8 7 8 7 8 8 7 7 6 6 6 6 5 6 6 6 6 6 7
1 3 3 2 2 1 4 3 2 6 6 4 8 12 13 16 16 14 15 15 15 13 14 13 14 13 11 10 10 8 7 8 7 7 8 10 7 7 6 6 6 7 6 6 6 6 6 6 6
1 6 2 4 3 2 2 4 7 2 5 7 8 9 11 14 15 16 15 15 14 12 11 13 13 13 12 12 10 8 8 7 7 8 10 10 10 9 8 7 7 7 6 7 6 7 6 6 6
3 2 6 4 4 1 5 10 7 4 6 10 9 9 10 13 13 13 12 13 12 12 13 13 11 13 14 12 9 8 8 8 8 8 8 10 11 11 9 7 7 6 6 6 6 6 6 6 6
1 5 8 2 3 2 7 6 3 1 6 8 8 9 9 10 12 12 12 11 12 12 12 13 13 14 14 12 9 9 10 9 8 8 8 10 11 11 9 8 7 7 6 6 6 6 7 6 7
5 6 5 11 4 3 7 12 2 3 4 9 9 8 9 10 11 11 11 10 11 11 11 12 11 12 12 9 9 8 8 9 8 9 9 11 9 11 10 9 9 8 7 7 7 8 7 8 8
2 3 6 0 2 4 10 12 11 4 5 8 9 10 10 10 7 7 8 8 9 11 12 12 12 12 9 8 8 8 9 9 9 9 12 12 11 11 11 9 9 8 8 8 7 8 7 7 7
2 1 1 0 2 2 2 14 12 8 8 10 10 10 11 7 7 7 7 8 7 7 9 10 10 9 9 8 7 6 5 7 8 7 10 11 12 11 10 10 9 9 7 9 9 8 2 4 6
3 2 1 2 1 2 2 9 10 5 8 10 12 12 10 10 9 7 7 7 5 5 5 4 4 5 7 8 7 5 4 3 4 6 6 7 9 10 11 11 9 8 7 7 8 7 7 4 5
3 2 3 3 3 4 2 6 4 3 9 8 12 12 13 11 9 8 7 8 6 4 2 3 3 3 2 3 6 9 8 8 6 5 5 5 7 8 9 10 9 8 6 8 8 7 6 6 8
5 3 1 1 2 1 4 6 3 1 5 7 4 4 6 6 7 8 7 6 3 4 3 3 4 3 2 0 2 4 7 6 6 5 7 6 5 6 6 7 7 7 6 7 8 7 6 5 6
11 5 3 2 1 5 2 5 7 4 3 1 1 3 4 3 1 3 3 5 5 4 3 2 4 4 3 2 1 3 5 5 5 4 5 4 3 2 2 4 5 4 5 4 4 4 4 2 2
6 7 3 4 5 6 3 4 10 11 6 4 3 5 2 0 3 5 6 6 5 4 4 3 4 4 4 4 4 3 3 4 5 5 3 3 3 2 2 2 3 2 2 1 2 2 3 3 1
9 12 5 6 4 2 3 7 2 3 4 4 5 6 3 4 3 4 5 5 6 5 4 4 5 4 4 3 3 3 3 2 2 3 3 2 0 1 3 3 4 5 4 3 3 3 3 3 2
6 8 7 3 2 2 4 5 10 10 3 3 3 2 6 4 5 5 4 5 6 5 5 4 4 4 3 3 2 3 3 3 3 3 1 1 3 3 4 5 5 5 4 3 4 3 4 3 4
5 12 6 4 5 6 5 5 8 6 6 8 5 5 6 4 5 5 5 5 4 4 4 4 4 4 3 2 2 2 2 3 3 3 4 4 4 4 4 5 5 4 4 4 4 4 4 4 3
5 5 4 5 2 3 3 4 4 3 2 5 8 6 5 6 7 7 6 5 5 5 5 4 4 4 3 2 2 2 2 3 3 3 3 3 4 4 4 4 5 5 5 4 4 5 4 4 4
1 0 6 4 4 3 2 7 4 5 3 5 8 6 4 5 5 5 6 6 6 5 5 5 5 5 4 4 3 3 3 2 2 2 3 3 4 4 4 4 5 5 4 4 4 4 4 4 4
Wind_Direction
320 155 178 210 233 240 209 178 156 153 163 141 155 198 194 18 219 28 130 139 145 153 155 166 163 159 153 148 142 142 134 127 121 118 113 112 110 106 102 99 95 94 94 91 87 86 77 59 53
221 168 213 252 250 225 183 152 191 157 129 149 158 169 193 131 97 109 144 159 157 152 155 164 160 161 150 148 145 141 136 132 129 124 122 119 116 115 112 111 101 97 95 92 87 80 72 59 54
185 236 245 240 244 249 235 180 162 127 142 165 162 259 113 99 123 158 144 162 154 155 157 150 153 154 154 149 145 142 140 136 134 133 125 124 121 121 155 127 114 99 95 93 88 80 71 61 53
213 195 186 242 228 226 268 173 161 148 168 205 181 168 141 24 138 166 145 155 156 156 160 141 154 152 148 148 144 145 143 143 142 143 138 128 121 111 85 89 115 106 97 91 86 79 71 65 54
213 242 228 237 240 239 230 206 177 171 152 170 190 149 127 126 135 138 153 160 159 160 161 160 155 151 146 146 141 147 148 148 148 151 152 148 132 122 103 81 69 100 105 100 94 82 66 54 53
214 263 225 226 216 196 206 186 175 184 160 148 197 159 120 104 146 154 159 165 163 160 162 159 152 144 148 151 149 155 162 156 152 158 160 161 162 153 147 143 128 119 123 122 118 96 70 6 3
255 222 237 238 237 218 182 166 190 182 175 182 126 187 108 162 154 156 165 162 164 160 166 166 170 163 156 157 160 163 170 162 165 164 157 155 153 152 155 156 158 172 173 197 240 245 282 302 305
251 250 205 221 208 213 147 170 217 191 176 100 186 190 168 167 151 156 160 161 163 166 166 171 177 181 177 174 170 170 187 187 173 178 178 179 178 190 194 205 207 226 240 261 272 271 269 278 290
242 221 224 210 190 164 152 188 155 122 153 191 178 304 74 137 143 153 159 165 167 170 172 178 184 188 195 185 170 174 189 203 164 177 186 187 214 194 188 158 266 256 265 275 278 283 283 291 265
225 222 220 231 188 175 175 198 162 181 171 184 191 127 130 149 156 160 170 174 178 179 177 185 187 192 207 190 183 198 191 207 204 203 198 217 219 220 246 249 233 260 273 275 273 278 288 259 283
173 232 218 204 193 152 165 197 174 195 200 203 199 172 163 165 172 173 179 182 183 183 187 189 189 197 197 203 201 202 206 209 215 219 220 224 226 221 221 238 228 240 209 259 242 251 257 277 284
205 227 208 144 179 168 164 164 192 215 102 327 166 164 164 177 179 182 184 185 186 189 194 194 196 195 200 205 205 208 209 210 216 218 219 221 227 229 236 237 240 239 248 261 262 267 274 274 273
225 181 178 137 208 218 145 181 229 216 185 102 159 157 171 182 186 192 191 190 192 197 197 197 198 202 204 209 212 215 217 213 222 221 218 220 227 234 237 242 245 246 247 250 259 261 267 271 273
248 170 134 173 200 199 198 149 202 203 164 147 174 175 177 185 188 191 195 197 199 203 202 198 202 204 204 212 215 215 220 226 226 227 225 223 236 239 241 246 248 252 252 255 256 264 270 273 274
174 171 137 192 193 219 240 179 211 116 189 186 184 185 180 188 190 200 197 201 199 203 202 204 205 206 210 213 217 221 223 225 225 231 229 225 226 235 241 248 251 252 252 254 257 259 256 261 264
175 181 191 145 183 172 231 222 193 148 198 203 194 190 189 194 196 202 199 205 202 207 206 205 205 209 212 217 215 220 225 226 231 231 232 228 229 232 235 242 246 246 244 244 249 253 257 253 255
164 205 206 182 213 185 223 236 136 172 194 214 206 199 198 197 202 205 208 209 209 214 213 215 211 215 215 220 221 224 226 229 232 233 233 232 229 229 232 240 250 251 248 248 253 255 249 261 258
171 203 212 213 160 221 212 241 171 192 240 221 215 213 207 214 215 208 209 212 217 220 222 222 217 218 216 218 222 229 232 234 235 234 234 234 232 230 230 238 242 243 247 247 244 254 257 262 284
293 227 217 146 37 219 233 256 244 207 249 237 232 223 227 221 214 218 216 217 220 226 222 220 218 220 211 210 213 230 230 230 234 232 235 233 231 229 231 237 242 239 245 253 261 266 273 275 260
45 236 191 21 11 225 288 264 258 242 248 237 239 243 241 226 217 201 202 198 207 211 217 217 216 215 211 213 215 224 224 235 239 239 238 236 235 233 234 234 238 238 246 250 250 242 235 252 276
226 270 224 356 92 68 305 270 246 228 249 254 248 246 257 250 236 218 200 197 177 174 160 171 182 209 219 221 220 229 244 251 243 235 243 236 235 235 231 237 238 238 235 249 247 225 206 245 270
253 269 245 148 204 252 319 262 236 240 255 246 252 251 252 248 244 249 224 210 196 160 123 135 133 133 116 214 226 234 242 249 251 265 252 247 231 235 232 236 235 236 230 242 246 245 213 226 260
194 12 105 124 147 263 196 261 214 22 258 240 235 270 287 283 251 236 236 229 157 148 149 148 142 113 77 203 237 233 242 257 270 266 272 263 252 244 237 234 234 233 231 242 246 249 239 226 258
137 93 50 44 66 252 194 266 239 205 235 82 346 335 332 336 83 126 109 142 136 129 132 126 138 99 72 72 51 262 260 263 264 259 260 259 254 233 240 239 233 228 229 237 243 257 274 274 175
109 156 204 222 210 253 55 245 290 287 278 288 291 319 348 4 140 141 144 146 141 141 133 113 123 91 73 76 68 41 346 291 274 278 278 271 230 202 173 182 169 113 99 92 159 129 95 42 340
154 194 191 205 213 345 73 242 222 236 259 267 280 291 218 193 171 168 150 148 142 140 130 123 115 106 80 76 73 56 39 16 346 308 292 306 237 128 117 102 100 98 90 88 96 83 82 97 92
162 206 199 45 94 278 246 254 260 293 24 3 313 256 222 211 197 182 160 168 158 151 139 135 134 122 105 90 74 54 43 46 26 12 26 98 105 103 104 100 98 90 90 105 116 116 115 111 115
199 143 125 180 197 228 226 258 249 265 360 341 317 235 225 210 213 200 184 177 167 149 146 148 144 137 121 112 85 67 47 50 51 45 60 68 83 91 97 100 101 94 90 96 111 117 116 129 111
147 175 103 127 233 267 281 229 209 245 47 330 324 299 253 222 213 200 198 184 175 168 173 170 166 159 159 166 139 120 61 48 56 69 67 76 96 107 114 118 121 117 116 119 117 109 116 117 108
277 75 190 199 187 255 293 255 296 321 10 347 330 304 266 253 228 210 195 191 189 189 184 187 175 179 171 164 164 138 134 128 114 98 93 95 103 98 115 119 119 114 110 108 116 114 111 117 115